Date String (YYYY-MM-DD hh:mm:ss) UTC,Instrument flags,absolute air pressure of the measurement (hPa),sample flow rate (lpm),inlet stack bypass flow (lpm),air temperature of the measurement (°C),ambient temperature measured by the external sensor (°C),aerosol sample conditioner tube jacket temperature (°C),OPC LED temperature (°C),internal box temperature (°C),relative humidity of the measurement (%),span deviation,mass concentration of particles derived from Lorenz-Mie calculation of OPC scattering (μg/m³),mass concentration of particles derived from Lorenz-Mie calculation of OPC scattering (μg/m³),mass concentration of particles derived from Lorenz-Mie calculation of OPC scattering (μg/m³)
DateTimeUTC,F1_M11,P_M11,Q1_M11,Q2_M11,T1_M11,T2_M11,T3_M11,T4_M11,T5_M11,U1_M11,ZSPAN_M11,X0_M11,X2_M11,X1_M11
2024-05-28 00:00:00,SystemResetWarning,0831.5,5.00,000.00,030.2,028.3,000.0,038.4,031.3,013.2,0000.0,0010.80,0003.95,0003.21
2024-05-28 00:01:00,SystemResetWarning,0831.5,5.01,000.00,029.8,026.7,000.0,038.5,030.5,013.7,0000.0,0010.99,0003.96,0003.21
2024-05-28 00:02:00,SystemResetWarning,0831.5,5.01,000.00,029.6,026.9,000.0,038.4,030.5,014.0,0000.0,0011.00,0003.96,0003.21
2024-05-28 00:03:00,SystemResetWarning,0831.5,4.99,000.00,029.6,027.3,000.0,038.3,030.7,013.6,0000.0,0010.85,0003.96,0003.22
2024-05-28 00:04:00,SystemResetWarning,0831.5,5.00,000.00,029.6,027.7,000.0,038.2,031.0,014.5,0000.0,0010.20,0003.92,0003.21
2024-05-28 00:05:00,SystemResetWarning,0831.6,5.01,000.00,029.6,028.0,000.0,038.2,031.2,014.4,0000.0,0010.49,0003.94,0003.20
2024-05-28 00:06:00,SystemResetWarning,0831.6,4.99,000.00,029.7,028.3,000.0,038.1,031.3,014.4,0000.0,0011.09,0003.92,0003.19
2024-05-28 00:07:00,SystemResetWarning,0831.6,5.00,000.00,029.7,028.6,000.0,038.1,031.4,014.4,0000.0,0011.80,0003.93,0003.20
2024-05-28 00:08:00,SystemResetWarning,0831.5,5.00,000.00,029.8,028.8,000.0,038.1,031.5,014.2,0000.0,0012.10,0003.93,0003.20
2024-05-28 00:09:00,SystemResetWarning,0831.6,5.00,000.00,029.9,029.0,000.0,038.1,031.6,014.6,0000.0,0012.49,0003.95,0003.20
2024-05-28 00:10:00,SystemResetWarning,0831.5,5.01,000.00,029.9,029.2,000.0,038.2,031.7,014.2,0000.0,0012.38,0003.94,0003.19
2024-05-28 00:11:00,SystemResetWarning,0831.6,5.00,000.00,030.0,029.3,000.0,038.2,031.8,014.3,0000.0,0012.02,0003.91,0003.17
2024-05-28 00:12:00,SystemResetWarning,0831.6,5.00,000.00,030.1,029.5,000.0,038.2,031.8,014.9,0000.0,0011.83,0003.89,0003.16
2024-05-28 00:13:00,SystemResetWarning,0831.6,5.00,000.00,030.1,029.6,000.0,038.2,031.9,015.4,0000.0,0011.77,0003.86,0003.16
2024-05-28 00:14:00,SystemResetWarning,0831.6,5.00,000.00,030.2,029.7,000.0,038.3,032.0,015.1,0000.0,0011.25,0003.84,0003.17
2024-05-28 00:15:00,SystemResetWarning,0831.6,5.00,000.00,030.2,029.8,000.0,038.3,032.0,015.0,0000.0,0011.96,0003.86,0003.16
2024-05-28 00:16:00,SystemResetWarning,0831.6,5.00,000.00,030.3,029.8,000.0,038.4,032.1,015.3,0000.0,0012.53,0003.85,0003.17
2024-05-28 00:17:00,SystemResetWarning,0831.6,4.99,000.00,030.2,028.4,000.0,038.4,031.4,014.9,0000.0,0011.22,0003.83,0003.17
2024-05-28 00:18:00,SystemResetWarning,0831.5,5.02,000.00,029.8,026.6,000.0,038.4,030.6,015.0,0000.0,0010.37,0003.83,0003.16
2024-05-28 00:19:00,SystemResetWarning,0831.5,5.00,000.00,029.6,026.9,000.0,038.4,030.5,014.9,0000.0,0009.77,0003.79,0003.16
2024-05-28 00:20:00,SystemResetWarning,0831.5,5.00,000.00,029.6,027.2,000.0,038.3,030.7,014.0,0000.0,0009.68,0003.80,0003.16
2024-05-28 00:21:00,SystemResetWarning,0831.5,5.00,000.00,029.6,027.6,000.0,038.2,030.9,013.7,0000.0,0009.26,0003.77,0003.17
2024-05-28 00:22:00,SystemResetWarning,0831.5,5.00,000.00,029.6,028.0,000.0,038.2,031.1,014.1,0000.0,0009.46,0003.77,0003.17
2024-05-28 00:23:00,SystemResetWarning,0831.5,4.99,000.00,029.7,028.3,000.0,038.1,031.3,014.1,0000.0,0009.35,0003.79,0003.18
2024-05-28 00:24:00,SystemResetWarning,0831.6,5.00,000.00,029.7,028.6,000.0,038.1,031.4,014.3,0000.0,0009.53,0003.82,0003.19
2024-05-28 00:25:00,SystemResetWarning,0831.6,5.00,000.00,029.8,028.8,000.0,038.1,031.5,014.1,0000.0,0009.56,0003.81,0003.18
2024-05-28 00:26:00,SystemResetWarning,0831.6,5.01,000.00,029.9,029.0,000.0,038.1,031.6,014.0,0000.0,0009.29,0003.80,0003.19
2024-05-28 00:27:00,SystemResetWarning,0831.6,4.99,000.00,029.9,029.2,000.0,038.2,031.7,013.7,0000.0,0009.31,0003.78,0003.19
2024-05-28 00:28:00,SystemResetWarning,0831.6,5.00,000.00,030.0,029.3,000.0,038.2,031.8,013.9,0000.0,0009.43,0003.80,0003.20
2024-05-28 00:29:00,SystemResetWarning,0831.6,5.00,000.00,030.0,029.4,000.0,038.2,031.8,013.6,0000.0,0009.34,0003.77,0003.20
2024-05-28 00:30:00,SystemResetWarning,0831.6,5.00,000.00,030.1,029.5,000.0,038.2,031.9,013.1,0000.0,0009.30,0003.77,0003.20
2024-05-28 00:31:00,SystemResetWarning,0831.6,5.00,000.00,030.2,029.6,000.0,038.3,032.0,013.3,0000.0,0009.40,0003.76,0003.20
2024-05-28 00:32:00,SystemResetWarning,0831.6,5.00,000.00,030.2,029.7,000.0,038.3,032.0,014.0,0000.0,0010.28,0003.77,0003.20
2024-05-28 00:33:00,SystemResetWarning,0831.6,5.00,000.00,030.3,029.8,000.0,038.3,032.1,014.1,0000.0,0010.96,0003.81,0003.20
2024-05-28 00:34:00,SystemResetWarning,0831.6,5.00,000.00,030.3,029.9,000.0,038.4,032.1,014.0,0000.0,0011.44,0003.80,0003.20
2024-05-28 00:35:00,SystemResetWarning,0831.6,4.99,000.00,030.4,029.7,000.0,038.4,032.0,014.0,0000.0,0011.32,0003.80,0003.20
2024-05-28 00:36:00,SystemResetWarning,0831.6,4.98,000.00,030.1,027.5,000.0,038.5,030.9,014.5,0000.0,0011.37,0003.80,0003.19
2024-05-28 00:37:00,SystemResetWarning,0831.5,5.02,000.00,029.6,025.4,000.0,038.5,029.9,015.4,0000.0,0011.76,0003.79,0003.18
2024-05-28 00:38:00,SystemResetWarning,0831.5,5.01,000.00,029.3,025.7,000.0,038.4,029.9,015.8,0000.0,0011.24,0003.80,0003.19
2024-05-28 00:39:00,SystemResetWarning,0831.6,4.99,000.00,029.2,026.2,000.0,038.2,030.1,015.6,0000.0,0011.14,0003.82,0003.19
2024-05-28 00:40:00,SystemResetWarning,0831.6,5.01,000.00,029.2,026.7,000.0,038.1,030.4,015.5,0000.0,0011.70,0003.88,0003.19
2024-05-28 00:41:00,SystemResetWarning,0831.6,5.00,000.00,029.3,027.2,000.0,038.0,030.6,015.8,0000.0,0011.89,0003.89,0003.19
2024-05-28 00:42:00,SystemResetWarning,0831.6,5.00,000.00,029.3,027.6,000.0,037.9,030.8,015.6,0000.0,0012.70,0003.86,0003.19
2024-05-28 00:43:00,SystemResetWarning,0831.6,5.01,000.00,029.4,028.0,000.0,037.9,031.0,015.7,0000.0,0012.35,0003.85,0003.19
2024-05-28 00:44:00,SystemResetWarning,0831.6,5.00,000.00,029.4,028.3,000.0,037.9,031.1,015.5,0000.0,0012.26,0003.82,0003.19
2024-05-28 00:45:00,SystemResetWarning,0831.7,5.00,000.00,029.5,028.5,000.0,037.9,031.2,015.5,0000.0,0011.90,0003.84,0003.19
2024-05-28 00:46:00,SystemResetWarning,0831.7,4.99,000.00,029.6,028.7,000.0,037.9,031.3,015.2,0000.0,0012.14,0003.81,0003.18
2024-05-28 00:47:00,SystemResetWarning,0831.7,5.00,000.00,029.6,028.9,000.0,037.9,031.4,015.1,0000.0,0012.74,0003.82,0003.19
2024-05-28 00:48:00,SystemResetWarning,0831.7,5.00,000.00,029.7,029.0,000.0,037.9,031.5,015.2,0000.0,0012.64,0003.81,0003.19
2024-05-28 00:49:00,SystemResetWarning,0831.7,5.00,000.00,029.8,029.2,000.0,038.0,031.5,015.3,0000.0,0012.17,0003.78,0003.19
2024-05-28 00:50:00,SystemResetWarning,0832.0,5.00,000.00,029.8,029.3,000.0,038.0,031.6,015.0,0000.0,0013.81,0003.77,0003.18
2024-05-28 00:51:00,SystemResetWarning,0832.3,4.99,000.00,029.9,029.4,000.0,038.0,031.7,014.9,0000.0,0013.73,0003.75,0003.18
2024-05-28 00:52:00,SystemResetWarning,0831.9,5.00,000.00,030.0,029.5,000.0,038.0,031.8,015.0,0000.0,0014.05,0003.80,0003.17
2024-05-28 00:53:00,SystemResetWarning,0831.9,5.00,000.00,030.0,029.6,000.0,038.1,031.9,015.1,0000.0,0013.97,0003.84,0003.18
2024-05-28 00:54:00,SystemResetWarning,0831.8,5.00,000.00,030.1,029.6,000.0,038.1,031.9,014.8,0000.0,0013.73,0003.83,0003.18
2024-05-28 00:55:00,SystemResetWarning,0831.9,4.99,000.00,030.1,029.7,000.0,038.2,032.0,015.1,0000.0,0013.65,0003.85,0003.17
2024-05-28 00:56:00,SystemResetWarning,0831.9,4.99,000.00,030.2,029.8,000.0,038.2,032.0,015.1,0000.0,0013.83,0003.85,0003.18
2024-05-28 00:57:00,SystemResetWarning,0831.9,5.01,000.00,030.3,029.9,000.0,038.3,032.1,014.7,0000.0,0015.17,0003.87,0003.18
2024-05-28 00:58:00,SystemResetWarning,0831.9,5.02,000.00,030.3,029.9,000.0,038.3,032.1,014.3,0000.0,0015.20,0003.90,0003.18
2024-05-28 00:59:00,SystemResetWarning,0831.9,5.00,000.00,030.4,030.0,000.0,038.4,032.2,014.1,0000.0,0015.05,0003.93,0003.18
